sat.trackr.live / text

‹ back to catalog

STARLINK-37591

NORAD 69033 · 2026-101J

PAYLOAD ACTIVE UNKNOWN

§ Identity

Operator
Country
US
Launch date
2026-05-06
Launch site
AFWTR
Launch vehicle
Mass (kg)
RCS (m²)

Purposes: comms

External: N2YO · Heavens-Above · Gunter

§ Orbital elements

Epoch: 2026-09-19T00:52:15.475872Z

Period
93.91 min
Inclination
97.2852°
Eccentricity
0.0001552
Mean motion
15.33443839 rev/d
Perigee alt
464.5 km
Apogee alt
466.6 km
Semi-major
6,843.7 km
B*
6.9073e-4
RAAN
115.5266°
Arg perigee
111.4330°
Mean anomaly
248.7079°
Rev number
2,095

§ Raw data

STARLINK-375911 69033U 26101J   26262.03629023  .00022290  00000+0  69073-3 0  99962 69033  97.2852 115.5266 0001552 111.4330 248.7079 15.33443839 20954

JSON: /api/v1/satellites/69033 · /tle

For live sub-satellite position, see the globe view (requires WebGL).

§ Visibility from observer

Set your observer location to see the next 7 days of passes ≥ 10°. The values pass through the URL so the page stays shareable.

No JS? Fill the form by hand. The geolocation button needs JavaScript.